Time,TemperatureF,DewpointF,PressureIn,WindDirection,WindDirectionDegrees,WindSpeedMPH,WindSpeedGustMPH,Humidity,HourlyPrecipIn,Conditions,Clouds,dailyrainin,SoftwareType,DateUTC
2013-01-09 11:54:00,-999.0,-99.9,-100.00,North,-999,-999.0,-999.0,-999,-99.99,,,-99.99,Acu-Link.com,2013-01-09 19:54:00,
2013-01-09 12:10:00,52.0,47.9,29.77,SSW,202,2.7,-999.0,86,-99.99,,,0.00,Acu-Link.com,2013-01-09 20:10:00,
2013-01-09 12:25:00,52.0,48.6,29.76,SSW,202,1.7,-999.0,88,-99.99,,,0.00,Acu-Link.com,2013-01-09 20:25:00,
2013-01-09 12:40:00,52.0,48.6,29.75,SSW,202,2.2,-999.0,88,-99.99,,,0.00,Acu-Link.com,2013-01-09 20:40:00,
2013-01-09 12:55:00,51.6,48.2,29.76,SSW,202,2.7,-999.0,88,-99.99,,,0.00,Acu-Link.com,2013-01-09 20:55:00,
2013-01-09 13:10:00,51.4,48.6,29.75,SSW,202,4.2,-999.0,90,-99.99,,,0.00,Acu-Link.com,2013-01-09 21:10:00,
2013-01-09 13:25:00,51.3,49.1,29.75,SSW,202,2.7,-999.0,92,-99.99,,,0.00,Acu-Link.com,2013-01-09 21:25:00,
2013-01-09 13:40:00,51.4,49.2,29.75,SSW,202,1.7,-999.0,92,-99.99,,,0.00,Acu-Link.com,2013-01-09 21:40:00,
2013-01-09 13:55:00,51.4,49.4,29.74,SSW,202,2.2,-999.0,93,-99.99,,,0.00,Acu-Link.com,2013-01-09 21:55:00,
2013-01-09 14:10:00,51.1,50.3,29.74,SSW,202,6.3,-999.0,97,-99.99,,,0.00,Acu-Link.com,2013-01-09 22:10:00,
2013-01-09 14:25:00,50.7,50.2,29.74,SSW,202,3.2,-999.0,98,-99.99,,,0.00,Acu-Link.com,2013-01-09 22:25:00,
2013-01-09 14:41:00,49.1,48.3,29.74,SSW,202,1.7,-999.0,97,-99.99,,,0.00,Acu-Link.com,2013-01-09 22:41:00,
2013-01-09 14:56:00,48.7,47.9,29.73,SSW,202,1.7,-999.0,97,-99.99,,,0.00,Acu-Link.com,2013-01-09 22:56:00,
2013-01-09 15:11:00,48.2,46.8,29.74,North,0,4.7,-999.0,95,-99.99,,,0.00,Acu-Link.com,2013-01-09 23:11:00,
2013-01-09 15:26:00,47.7,46.6,29.74,South,180,6.3,-999.0,96,-99.99,,,0.00,Acu-Link.com,2013-01-09 23:26:00,
2013-01-09 15:41:00,47.5,44.1,29.75,ESE,112,1.7,-999.0,88,-99.99,,,0.00,Acu-Link.com,2013-01-09 23:41:00,
2013-01-09 15:56:00,47.8,44.7,29.75,SSE,157,5.8,-999.0,89,-99.99,,,0.00,Acu-Link.com,2013-01-09 23:56:00,
2013-01-09 16:11:00,47.3,44.2,29.74,North,0,2.2,-999.0,89,-99.99,,,0.00,Acu-Link.com,2013-01-10 00:11:00,
2013-01-09 16:26:00,47.5,43.2,29.74,ESE,112,2.7,-999.0,85,-99.99,,,0.00,Acu-Link.com,2013-01-10 00:26:00,
2013-01-09 16:41:00,47.1,41.9,29.74,SSW,202,3.2,-999.0,82,-99.99,,,0.00,Acu-Link.com,2013-01-10 00:41:00,
2013-01-09 16:57:00,46.9,41.4,29.74,ESE,112,3.7,-999.0,81,-99.99,,,0.00,Acu-Link.com,2013-01-10 00:57:00,
2013-01-09 17:12:00,46.6,41.1,29.74,East,90,1.7,-999.0,81,-99.99,,,0.00,Acu-Link.com,2013-01-10 01:12:00,
2013-01-09 17:27:00,46.8,40.0,29.74,ESE,112,4.7,-999.0,77,-99.99,,,0.00,Acu-Link.com,2013-01-10 01:27:00,
2013-01-09 17:42:00,46.8,40.0,29.75,ESE,112,4.2,-999.0,77,-99.99,,,0.00,Acu-Link.com,2013-01-10 01:42:00,
2013-01-09 17:57:00,46.6,39.8,29.74,North,0,3.7,-999.0,77,-99.99,,,0.00,Acu-Link.com,2013-01-10 01:57:00,
2013-01-09 18:12:00,46.4,39.6,29.75,North,0,2.7,-999.0,77,-99.99,,,0.00,Acu-Link.com,2013-01-10 02:12:00,
2013-01-09 18:28:00,46.0,39.2,29.75,ESE,112,5.3,-999.0,77,-99.99,,,0.00,Acu-Link.com,2013-01-10 02:28:00,
2013-01-09 18:43:00,45.9,39.1,29.75,SE,135,1.7,-999.0,77,-99.99,,,0.00,Acu-Link.com,2013-01-10 02:43:00,
2013-01-09 18:58:00,45.1,38.7,29.76,ESE,112,2.2,-999.0,78,-99.99,,,0.00,Acu-Link.com,2013-01-10 02:58:00,
2013-01-09 19:13:00,45.1,38.7,29.76,North,0,2.2,-999.0,78,-99.99,,,0.00,Acu-Link.com,2013-01-10 03:13:00,
2013-01-09 19:28:00,45.1,37.7,29.76,East,90,1.7,-999.0,75,-99.99,,,0.00,Acu-Link.com,2013-01-10 03:28:00,
2013-01-09 19:43:00,45.0,38.6,29.77,ESE,112,1.7,-999.0,78,-99.99,,,0.00,Acu-Link.com,2013-01-10 03:43:00,
2013-01-09 19:58:00,45.0,38.9,29.78,SE,135,6.8,-999.0,79,-99.99,,,0.00,Acu-Link.com,2013-01-10 03:58:00,
2013-01-09 20:13:00,44.8,38.0,29.77,ESE,112,1.1,-999.0,77,-99.99,,,0.00,Acu-Link.com,2013-01-10 04:13:00,
2013-01-09 20:28:00,44.1,38.3,29.78,ESE,112,1.7,-999.0,80,-99.99,,,0.00,Acu-Link.com,2013-01-10 04:28:00,
2013-01-09 20:44:00,44.1,38.3,29.79,ESE,112,2.7,-999.0,80,-99.99,,,0.00,Acu-Link.com,2013-01-10 04:44:00,
2013-01-09 20:59:00,44.6,37.8,29.79,NNE,22,4.2,-999.0,77,-99.99,,,0.00,Acu-Link.com,2013-01-10 04:59:00,
2013-01-09 21:14:00,44.6,37.5,29.79,ESE,112,4.7,-999.0,76,-99.99,,,0.00,Acu-Link.com,2013-01-10 05:14:00,
2013-01-09 21:29:00,44.2,37.8,29.79,ESE,112,1.7,-999.0,78,-99.99,,,0.00,Acu-Link.com,2013-01-10 05:29:00,
2013-01-09 21:44:00,44.2,37.5,29.80,ESE,112,3.7,-999.0,77,-99.99,,,0.00,Acu-Link.com,2013-01-10 05:44:00,
2013-01-09 21:59:00,44.4,37.0,29.80,ESE,112,1.7,-999.0,75,-99.99,,,0.00,Acu-Link.com,2013-01-10 05:59:00,
2013-01-09 22:14:00,43.9,36.8,29.80,ESE,112,2.2,-999.0,76,-99.99,,,0.00,Acu-Link.com,2013-01-10 06:14:00,
2013-01-09 22:29:00,43.3,36.3,29.80,SSW,202,1.7,-999.0,76,-99.99,,,0.00,Acu-Link.com,2013-01-10 06:29:00,
2013-01-09 22:44:00,43.2,36.5,29.81,SSW,202,2.2,-999.0,77,-99.99,,,0.00,Acu-Link.com,2013-01-10 06:44:00,
2013-01-09 23:00:00,43.2,36.8,29.81,SSW,202,1.7,-999.0,78,-99.99,,,0.00,Acu-Link.com,2013-01-10 07:00:00,
2013-01-09 23:15:00,42.6,36.9,29.82,SSW,202,0.0,-999.0,80,-99.99,,,0.00,Acu-Link.com,2013-01-10 07:15:00,
2013-01-09 23:30:00,42.4,36.4,29.82,SSW,202,2.2,-999.0,79,-99.99,,,0.00,Acu-Link.com,2013-01-10 07:30:00,
2013-01-09 23:45:00,42.3,36.6,29.82,SSW,202,0.0,-999.0,80,-99.99,,,0.00,Acu-Link.com,2013-01-10 07:45:00,